Location: Shepherdstown, WV
(39.4326°N, 77.8042°W)
Time: 08:04:08
(UTC-04:00)

deb Explorer IX - All Passes

Search period start: 02 August 2021 00:00
Search period end: 12 August 2021 00:00
Orbit: 543 x 1093 km, 38.8° (Epoch: 01 August)

Date Brightness Start Highest point End Pass type
(mag) Time Alt. Az. Time Alt. Az. Time Alt. Az.
02 Aug - 12:45:13 10° SSW 12:49:04 29° SSE 12:53:25 10° E daylight
02 Aug - 14:30:38 10° WSW 14:35:26 73° SSE 14:41:06 10° E daylight
02 Aug - 16:17:04 10° W 16:22:22 82° S 16:28:40 10° E daylight
02 Aug - 18:03:43 10° W 18:09:20 49° SSW 18:15:46 10° SE daylight
02 Aug - 19:51:36 10° WSW 19:55:55 19° SW 20:00:32 10° S daylight
03 Aug - 12:21:17 10° SSW 12:25:01 28° SSE 12:29:10 10° E daylight
03 Aug - 14:06:41 10° WSW 14:11:21 72° SSE 14:16:49 10° E daylight
03 Aug - 15:53:05 10° W 15:58:14 82° S 16:04:20 10° E daylight
03 Aug - 17:39:42 10° W 17:45:08 48° SSW 17:51:26 10° SE daylight
03 Aug - 19:27:34 10° WSW 19:31:43 18° SW 19:36:09 10° S daylight
04 Aug - 11:57:21 10° SSW 12:00:57 27° SSE 12:04:57 10° E daylight
04 Aug - 13:42:44 10° WSW 13:47:16 71° SSE 13:52:33 10° E daylight
04 Aug - 15:29:07 10° W 15:34:06 82° S 15:40:01 10° E daylight
04 Aug - 17:15:42 10° W 17:20:57 48° SSW 17:27:04 10° SE daylight
04 Aug - 19:03:33 10° WSW 19:07:30 18° SW 19:11:46 10° S daylight
05 Aug - 11:33:23 10° SSW 11:36:55 26° SSE 11:40:44 10° E daylight
05 Aug - 13:18:47 10° WSW 13:23:11 71° SSE 13:28:16 10° E daylight
05 Aug - 15:05:09 10° W 15:09:59 82° S 15:15:41 10° E daylight
05 Aug - 16:51:42 10° W 16:56:47 47° SSW 17:02:43 10° SE daylight
05 Aug - 18:39:33 10° WSW 18:43:18 17° SW 18:47:21 10° S daylight
06 Aug - 11:09:25 10° SSW 11:12:51 25° SSE 11:16:32 10° E daylight
06 Aug - 12:54:48 10° WSW 12:59:06 70° SSE 13:04:01 10° E daylight
06 Aug - 14:41:10 10° W 14:45:51 81° S 14:51:23 10° E daylight
06 Aug - 16:27:42 10° W 16:32:37 46° SSW 16:38:21 10° SE daylight
06 Aug - 18:15:34 10° WSW 18:19:06 17° SW 18:22:56 10° S daylight
07 Aug - 10:45:25 10° SSW 10:48:48 25° SSE 10:52:22 10° E daylight
07 Aug - 12:30:50 10° WSW 12:35:02 69° SSE 12:39:47 10° E daylight
07 Aug - 14:17:11 10° W 14:21:44 81° S 14:27:04 10° E daylight
07 Aug - 16:03:42 10° W 16:08:28 45° SSW 16:14:00 10° SE daylight
07 Aug - 17:51:37 10° WSW 17:54:55 16° SW 17:58:29 10° S daylight
08 Aug - 10:21:24 10° SSW 10:24:44 24° SSE 10:28:12 10° E daylight
08 Aug - 12:06:49 10° WSW 12:10:57 69° SSE 12:15:34 10° E daylight
08 Aug - 13:53:12 10° W 13:57:38 81° S 14:02:46 10° E daylight
08 Aug - 15:39:42 10° W 15:44:19 44° SSW 15:49:39 10° SE daylight
08 Aug - 17:27:40 10° WSW 17:30:44 15° SW 17:34:02 10° S daylight
09 Aug - 09:57:20 10° SSW 10:00:40 24° SSE 10:04:04 10° E daylight
09 Aug - 11:42:48 10° WSW 11:46:54 68° SSE 11:51:21 10° E daylight
09 Aug - 13:29:12 10° W 13:33:32 80° S 13:38:30 10° E daylight
09 Aug - 15:15:43 10° W 15:20:10 43° SSW 15:25:18 10° SE daylight
09 Aug - 17:03:43 10° WSW 17:06:33 15° SSW 17:09:34 10° S daylight
10 Aug - 09:33:16 10° SSW 09:36:35 24° SSE 09:39:56 10° E daylight
10 Aug - 11:18:46 10° WSW 11:22:49 68° SSE 11:27:10 10° E daylight
10 Aug - 13:05:11 10° W 13:09:26 80° S 13:14:13 10° E daylight
10 Aug - 14:51:43 10° W 14:56:01 42° SSW 15:00:58 10° SE daylight
10 Aug - 16:39:48 10° WSW 16:42:22 14° SSW 16:45:06 10° S daylight
11 Aug - 09:09:08 10° SSW 09:12:30 24° SSE 09:15:49 10° E daylight
11 Aug - 10:54:42 10° WSW 10:58:44 68° SSE 11:02:59 10° E daylight
11 Aug - 12:41:09 10° W 12:45:21 80° S 12:49:59 10° E daylight
11 Aug - 14:27:42 10° W 14:31:53 41° SSW 14:36:39 10° SE daylight
11 Aug - 16:15:54 10° WSW 16:18:11 13° SSW 16:20:37 10° S daylight
